Location: Bas Brec
(44.2500°N, 6.6667°E)
Time: 15:37:01
(UTC+00:00)

Daily predictions for brighter satellites

Satellite Brightness Start Highest point End
(mag) Time Altitude Azimuth Time Altitude Azimuth Time Altitude Azimuth
SL-27 R/B 2.4 17:01:48 10° NNW 17:05:23 81° ENE 17:08:53 10° SSE
Aureole 1 Rocket 2.3 17:03:50 10° N 17:06:48 47° ENE 17:09:42 10° SE
CZ-4B R/B 3.7 17:02:52 10° S 17:08:30 71° WSW 17:14:06 10° NNW
Meteor 1-16 Rocket 4.3 17:04:06 10° S 17:09:42 56° E 17:15:09 10° NNE
Cosmos 1602 Rocket 3.7 17:06:27 10° N 17:10:53 56° E 17:15:17 10° SSE
Cosmos 1626 Rocket 3.5 17:06:42 10° N 17:11:11 77° E 17:15:35 10° SSE
ADEOS Rocket 3.7 17:05:24 10° N 17:11:26 64° WNW 17:18:07 10° SSW
BREEZE-M R/B 3.3 17:08:45 10° WSW 17:11:58 66° NNW 17:18:07 10° ENE
Feng Yun 1-1 Rocket 4.5 17:06:38 10° SSE 17:12:21 59° ENE 17:18:10 10° N
NOAA 12 4.3 17:07:49 10° S 17:13:05 78° WSW 17:18:26 10° NNW
Cosmos 2228 4.2 17:10:21 10° SE 17:13:34 21° E 17:16:48 10° NE
Cosmos 1455 Rocket 4.4 17:09:27 10° SSW 17:13:35 44° WNW 17:17:45 10° N
USA 229 DEB 3.9 17:06:28 10° NW 17:13:49 78° NE 17:21:31 10° SE
USA 229 3.9 17:06:35 10° NW 17:13:55 78° NE 17:21:37 10° SE
Cosmos 1939 Rocket 3.3 17:12:44 10° SE 17:16:30 40° ENE 17:20:15 10° N
Cosmos 1356 Rocket 3.5 17:13:04 10° S 17:17:12 61° E 17:21:26 10° NNE
Cosmos 1420 Rocket 4.0 17:12:12 10° SSW 17:17:29 84° ESE 17:22:46 10° NNE
ERS-2 2.5 17:16:07 10° N 17:19:44 68° WNW 17:23:21 10° SSW
Cosmos 1954 Rocket 4.2 17:15:59 10° NNW 17:21:11 78° WSW 17:26:23 10° SSE
USA 281 4.2 17:14:53 10° S 17:21:15 53° WSW 17:27:40 10° NNW
Cosmos 1703 3.4 17:18:54 10° N 17:22:46 52° E 17:26:36 10° SSE
Cosmos 1908 3.3 17:19:47 10° S 17:23:31 55° E 17:27:18 10° NNE
CZ-4B R/B 1.7 17:21:38 10° N 17:24:57 66° WNW 17:28:08 10° SSW
CZ-4 R/B 2.2 17:22:29 10° SE 17:25:54 28° ENE 17:29:18 10° N
Cosmos 1943 Rocket 3.8 17:21:15 10° WSW 17:26:16 34° NW 17:31:17 10° N
CZ-2D R/B 3.8 17:23:11 10° SE 17:26:43 37° ENE 17:30:16 10° N
Okean O Rocket 2.8 17:22:35 10° S 17:26:49 47° W 17:31:03 10° NNW
NOSS 3-1 (A) 4.1 17:19:18 10° NW 17:26:53 77° NE 17:35:37 10° SE
IRS-1C Rocket 4.1 17:22:28 10° SSE 17:27:39 62° ENE 17:32:51 10° N
FengYun 1-2 T 4.4 17:22:09 10° SSE 17:27:49 85° WSW 17:33:30 10° NNW
Cosmos 1655 Rocket 4.1 17:22:13 10° N 17:28:39 89° E 17:35:04 10° S
Cosmos 2227 Rocket 4.0 17:26:24 10° NNE 17:29:02 13° NE 17:31:21 11° ENE
SMAP 4.3 17:25:30 10° S 17:29:58 46° W 17:34:28 10° NNW
Cosmos 1741 Rocket 4.2 17:27:29 10° NNW 17:32:38 52° ENE 17:37:42 10° SE
ERBS 3.5 17:31:37 10° WSW 17:34:46 39° NW 17:37:57 10° NE
ATLAS 5 CENTAUR R/B 3.0 17:32:12 10° WSW 17:35:58 35° NW 17:40:14 10° NNE
COSMO-SKYMED 1 2.5 17:34:30 10° NNE 17:38:50 69° ESE 17:43:08 10° S
Lacrosse 5 2.8 17:35:23 10° WSW 17:40:13 43° NNW 17:45:04 10° NE
NOSS 2-1 (C) 4.4 17:37:52 10° WSW 17:40:59 35° NW 17:44:16 10° NNE
USA 276 2.0 17:39:47 10° WNW 17:43:01 89° NE 17:45:14 18° ESE
H-2A R/B 2.8 17:39:01 10° SE 17:43:43 32° ENE 17:48:28 10° N
USA 215 3.9 17:40:04 14° E 17:45:09 40° NNE 17:51:09 10° NW
ARGOS 4.1 17:42:15 11° ESE 17:46:24 26° ENE 17:50:49 10° N
Cosmos 1241 Rocket 4.5 17:40:27 10° SSW 17:46:40 68° ESE 17:53:05 10° NE
SAR-Lupe-4 4.2 17:43:31 10° N 17:47:05 60° WNW 17:50:36 10° SSW
Okean-O 2.6 17:43:03 10° SSE 17:47:23 58° ENE 17:51:45 10° N
Cosmos 1328 3.7 17:46:10 10° N 17:50:08 88° E 17:54:05 10° S
SeaSat 1 2.9 17:45:48 11° ESE 17:50:12 41° NE 17:54:49 10° NNW
COSMOS 2487 2.4 17:48:03 10° N 17:51:27 54° ENE 17:54:49 10° SSE
CSL-04 Rocket 4.2 17:47:14 10° SE 17:52:22 40° ENE 17:57:30 10° N
Cosmos 1850 Rocket 4.0 17:47:07 10° NNW 17:52:26 79° ENE 17:57:44 10° SSE
Aureole 3 4.3 17:52:02 10° SSE 17:54:17 22° ESE 17:54:17 22° ESE
Cosmos 1452 Rocket 3.8 17:52:45 10° SSW 17:57:59 71° WNW 18:03:16 10° NNE
HJ-1C 4.4 17:58:45 26° ENE 17:58:45 26° ENE 18:01:19 10° NNE
Cosmos 1300 2.9 17:54:51 10° SSE 17:58:29 45° E 18:02:08 10° NNE
YAOGAN 1 2.6 17:54:22 10° SSE 17:58:36 58° ENE 18:02:52 10° N
Cosmos 1825 Rocket 3.5 17:54:58 10° N 17:59:26 74° E 18:03:52 10° SSE
Cosmos 1400 Rocket 3.6 18:01:59 10° SSE 18:05:29 30° E 18:05:29 30° E
CZ-2C R/B 3.3 18:00:50 10° SSE 18:06:36 68° ENE 18:12:20 10° N
Meteor 2-21 Rocket 4.4 18:02:22 10° N 18:08:37 79° E 18:14:45 10° SSE
Cosmos 2369 Rocket 4.2 18:05:06 10° WSW 18:09:49 26° NW 18:14:35 10° N
Cosmos 1244 Rocket 4.5 18:04:30 10° N 18:10:36 59° ENE 18:16:44 10° SSE
Cosmos 2297 Rocket 3.1 18:06:12 10° N 18:11:02 28° NE 18:12:08 26° ENE
SJ-11-01 4.4 18:07:16 10° SSE 18:11:47 52° ENE 18:16:20 10° N
Cosmos 1689 Rocket 3.8 18:09:16 10° N 18:11:56 33° WNW 18:14:33 10° SW
BREEZE-M R/B 4.2 18:04:55 10° W 18:12:57 45° NNW 18:14:14 29° NE
Cosmos 1758 Rocket 4.2 18:10:18 10° NNW 18:14:40 58° W 18:18:58 10° S
Cosmos 1726 Rocket 3.4 18:12:10 10° S 18:16:28 78° E 18:20:51 10° N
Meteor 2-8 Rocket 4.5 18:10:59 10° SSE 18:16:52 54° E 18:22:49 10° NNE
In-Cosmos 22 Rocket 4.4 18:12:11 10° N 18:17:15 43° ENE 18:19:42 27° SE
Helios 1A Rocket 4.0 18:19:17 10° S 18:23:17 47° W 18:27:17 10° NNW
CSL-04 Debris 4.1 18:18:22 10° SSE 18:23:45 75° ENE 18:29:12 10° N
Ariane Rocket 4.0 18:26:42 27° NE 18:26:42 27° NE 18:30:15 10° N
Cosmos 1606 Rocket 4.1 18:24:59 10° SSW 18:29:15 60° W 18:33:36 10° N
Cosmos 2219 3.7 18:24:45 10° NNW 18:30:08 39° ENE 18:30:54 38° ENE
Timation 2 Rocket 4.1 18:24:22 10° NNW 18:30:51 62° ENE 18:34:13 30° SE
USA 116 4.4 18:26:11 10° NNE 18:31:21 89° W 18:36:42 10° SSW
SL-4 R/B 2.9 18:29:02 10° W 18:32:23 36° NNW 18:33:10 32° NNE
SL-08 RB Rocket 4.4 18:33:52 35° NE 18:33:52 35° NE 18:37:04 10° N
Cosmos 44 3.7 18:32:38 10° S 18:35:51 39° SSE 18:35:51 39° SSE
Cosmos 1340 3.8 18:39:30 10° N 18:41:40 32° N 18:41:40 32° N
SL-08 ROCKET BODY 4.4 18:37:42 10° N 18:43:43 62° E 18:46:19 35° SE
S3M 4.0 18:39:05 10° SSE 18:44:57 53° E 18:50:55 10° NNE
Cosmos 2058 Rocket 3.1 18:42:18 10° S 18:46:45 81° W 18:51:16 10° N
CRYOSAT 2 4.2 18:44:17 10° N 18:49:11 80° E 18:54:02 10° S
Cosmos 1331 Rocket 4.4 18:45:26 10° SSW 18:50:33 63° WNW 18:55:41 10° NNE
Meteor 2-15 4.3 18:47:26 10° S 18:53:31 68° E 18:59:38 10° NNE
Cosmos 292 Rocket 3.9 18:51:44 10° SSW 18:56:29 72° WNW 18:59:05 27° NNE
Cosmos 1417 Rocket 4.4 18:52:46 10° S 18:58:58 85° E 19:05:18 10° N
MOS 1 Rocket 3.8 18:55:23 10° N 18:59:48 58° WNW 19:04:27 10° SSW
CZ-4 R/B 3.7 18:57:45 10° SSW 19:00:56 23° W 19:04:04 10° NW
Aureole 3 Rocket 3.8 19:01:24 10° SSW 19:04:36 43° WNW 19:08:41 10° N
Cosmos 2227 Rocket 2.5 19:08:38 10° NNW 19:13:12 53° NNE 19:13:12 53° NNE
Cosmos 1302 Rocket 4.1 19:10:30 10° SSW 19:15:44 73° WNW 19:16:03 70° NW
Cosmos 1553 Rocket 4.4 19:12:19 10° SSW 19:18:39 62° W 19:24:57 10° N
NOSS 2-2 (D) 4.4 19:13:10 10° NW 19:18:52 78° NE 19:19:04 77° ENE
ATLAS 5 CENTAUR R/B 4.5 19:21:06 10° NNW 19:22:11 11° NNW 19:23:19 10° N
H-2A R/B 3.5 19:18:05 10° SSW 19:23:00 38° W 19:28:03 10° NNW
Lacrosse 5 3.8 19:20:33 10° WNW 19:24:19 20° N 19:24:50 20° N
ARGOS 4.0 19:23:47 27° SSW 19:26:22 47° W 19:31:37 10° NNW
Cosmos 968 Rocket 4.5 19:21:21 10° NNW 19:24:40 39° NNW 19:24:40 39° NNW
SeaSat 1 4.1 19:25:37 22° SSW 19:27:46 30° WSW 19:32:07 10° NW
USA 215 3.1 19:27:26 81° SSE 19:27:47 87° SW 19:34:22 10° NW
Cosmos 2263 Rocket 4.4 19:28:36 10° N 19:29:39 13° NNE 19:29:39 13° NNE
CZ-2C R/B 4.4 19:27:12 10° N 19:40:26 - SSW 19:29:06 22° N
ATLAS 2AS CENTAUR R/B 4.1 19:28:18 10° NNW 19:34:19 26° NNE 19:34:19 26° NNE
Cosmos 2297 Rocket 3.3 19:49:52 10° NW 19:53:58 42° WNW 19:53:58 42° WNW
